TimeEST,TemperatureF,Dew PointF,Humidity,Sea Level PressureIn,VisibilityMPH,Wind Direction,Wind SpeedMPH,Gust SpeedMPH,PrecipitationIn,Events,Conditions,WindDirDegrees,DateUTC
12:15 AM,30.2,24.8,80,30.49,10.0,Calm,Calm,-,N/A,,Clear,0,2012-11-18 05:15:00
12:35 AM,30.2,24.8,80,30.49,10.0,Calm,Calm,-,N/A,,Clear,0,2012-11-18 05:35:00
12:55 AM,30.2,24.8,80,30.49,10.0,Calm,Calm,-,N/A,,Clear,0,2012-11-18 05:55:00
1:15 AM,28.4,24.8,86,30.49,10.0,Calm,Calm,-,N/A,,Clear,0,2012-11-18 06:15:00
1:35 AM,28.4,24.8,86,30.48,10.0,Calm,Calm,-,N/A,,Clear,0,2012-11-18 06:35:00
1:55 AM,28.4,24.8,86,30.48,10.0,Calm,Calm,-,N/A,,Clear,0,2012-11-18 06:55:00
2:15 AM,28.4,23.0,80,30.49,10.0,Calm,Calm,-,N/A,,Clear,0,2012-11-18 07:15:00
2:35 AM,28.4,24.8,86,30.49,10.0,Calm,Calm,-,N/A,,Clear,0,2012-11-18 07:35:00
3:15 AM,28.4,24.8,86,30.49,10.0,Calm,Calm,-,N/A,,Clear,0,2012-11-18 08:15:00
3:35 AM,28.4,23.0,80,30.49,10.0,Calm,Calm,-,N/A,,Clear,0,2012-11-18 08:35:00
3:55 AM,28.4,23.0,80,30.49,10.0,Calm,Calm,-,N/A,,Clear,0,2012-11-18 08:55:00
4:15 AM,26.6,23.0,86,30.49,10.0,Calm,Calm,-,N/A,,Clear,0,2012-11-18 09:15:00
4:35 AM,26.6,23.0,86,30.49,10.0,Calm,Calm,-,N/A,,Clear,0,2012-11-18 09:35:00
4:55 AM,26.6,23.0,86,30.49,10.0,Calm,Calm,-,N/A,,Clear,0,2012-11-18 09:55:00
5:15 AM,24.8,23.0,93,30.50,10.0,Calm,Calm,-,N/A,,Clear,0,2012-11-18 10:15:00
5:35 AM,24.8,21.2,86,30.50,10.0,Calm,Calm,-,N/A,,Clear,0,2012-11-18 10:35:00
5:55 AM,24.8,21.2,86,30.50,10.0,Calm,Calm,-,N/A,,Clear,0,2012-11-18 10:55:00
6:15 AM,24.8,21.2,86,30.50,10.0,Calm,Calm,-,N/A,,Clear,0,2012-11-18 11:15:00
6:35 AM,24.8,21.2,86,30.50,10.0,Calm,Calm,-,N/A,,Clear,0,2012-11-18 11:35:00
6:55 AM,23.0,21.2,93,30.50,10.0,Calm,Calm,-,N/A,,Clear,0,2012-11-18 11:55:00
7:15 AM,24.8,23.0,93,30.50,10.0,Calm,Calm,-,N/A,,Clear,0,2012-11-18 12:15:00
7:35 AM,24.8,23.0,93,30.50,10.0,Calm,Calm,-,N/A,,Clear,0,2012-11-18 12:35:00
7:55 AM,24.8,21.2,86,30.51,10.0,Calm,Calm,-,N/A,,Clear,0,2012-11-18 12:55:00
8:15 AM,26.6,23.0,86,30.51,10.0,Calm,Calm,-,N/A,,Clear,0,2012-11-18 13:15:00
8:35 AM,30.2,26.6,86,30.51,10.0,Calm,Calm,-,N/A,,Clear,0,2012-11-18 13:35:00
8:55 AM,32.0,28.4,87,30.51,10.0,Calm,Calm,-,N/A,,Clear,0,2012-11-18 13:55:00
9:15 AM,33.8,28.4,81,30.51,10.0,Calm,Calm,-,N/A,,Clear,0,2012-11-18 14:15:00
9:35 AM,39.2,28.4,65,30.50,10.0,Calm,Calm,-,N/A,,Clear,0,2012-11-18 14:35:00
9:55 AM,42.8,28.4,57,30.50,10.0,Calm,Calm,-,N/A,,Clear,0,2012-11-18 14:55:00
10:15 AM,46.4,28.4,50,30.50,10.0,Calm,Calm,-,N/A,,Clear,0,2012-11-18 15:15:00
10:35 AM,50.0,28.4,43,30.50,10.0,Calm,Calm,-,N/A,,Clear,0,2012-11-18 15:35:00
10:55 AM,51.8,28.4,41,30.50,10.0,Calm,Calm,-,N/A,,Clear,0,2012-11-18 15:55:00
11:15 AM,51.8,26.6,38,30.49,10.0,SSE,3.5,-,N/A,,Clear,160,2012-11-18 16:15:00
11:35 AM,55.4,28.4,36,30.48,10.0,SW,3.5,-,N/A,,Clear,230,2012-11-18 16:35:00
11:55 AM,55.4,28.4,36,30.47,10.0,Calm,Calm,-,N/A,,Clear,0,2012-11-18 16:55:00
12:15 PM,55.4,28.4,36,30.46,10.0,East,3.5,-,N/A,,Clear,100,2012-11-18 17:15:00
12:35 PM,55.4,26.6,33,30.44,10.0,Calm,Calm,-,N/A,,Clear,0,2012-11-18 17:35:00
12:55 PM,57.2,28.4,33,30.44,10.0,Calm,Calm,-,N/A,,Clear,0,2012-11-18 17:55:00
1:15 PM,59.0,28.4,31,30.43,10.0,NNE,4.6,-,N/A,,Clear,30,2012-11-18 18:15:00
1:35 PM,59.0,28.4,31,30.42,10.0,East,4.6,-,N/A,,Clear,80,2012-11-18 18:35:00
1:55 PM,59.0,28.4,31,30.41,10.0,East,4.6,-,N/A,,Clear,100,2012-11-18 18:55:00
2:15 PM,59.0,26.6,29,30.41,10.0,East,5.8,-,N/A,,Clear,100,2012-11-18 19:15:00
2:35 PM,59.0,28.4,31,30.41,10.0,ENE,4.6,-,N/A,,Clear,70,2012-11-18 19:35:00
2:55 PM,59.0,26.6,29,30.41,10.0,ESE,3.5,-,N/A,,Clear,120,2012-11-18 19:55:00
3:15 PM,59.0,28.4,31,30.41,10.0,ESE,3.5,-,N/A,,Clear,110,2012-11-18 20:15:00
3:35 PM,59.0,26.6,29,30.41,10.0,East,4.6,-,N/A,,Clear,100,2012-11-18 20:35:00
3:55 PM,59.0,26.6,29,30.41,10.0,East,3.5,-,N/A,,Clear,90,2012-11-18 20:55:00
4:15 PM,59.0,26.6,29,30.41,10.0,East,4.6,-,N/A,,Clear,80,2012-11-18 21:15:00
4:35 PM,55.4,26.6,33,30.41,10.0,Calm,Calm,-,N/A,,Clear,0,2012-11-18 21:35:00
4:55 PM,51.8,28.4,41,30.41,10.0,Calm,Calm,-,N/A,,Clear,0,2012-11-18 21:55:00
5:15 PM,50.0,28.4,43,30.41,10.0,Calm,Calm,-,N/A,,Clear,0,2012-11-18 22:15:00
5:35 PM,46.4,28.4,50,30.40,10.0,Calm,Calm,-,N/A,,Clear,0,2012-11-18 22:35:00
5:55 PM,42.8,28.4,57,30.41,10.0,Calm,Calm,-,N/A,,Clear,0,2012-11-18 22:55:00
6:15 PM,42.8,26.6,53,30.41,10.0,Calm,Calm,-,N/A,,Clear,0,2012-11-18 23:15:00
6:35 PM,42.8,28.4,57,30.42,10.0,Calm,Calm,-,N/A,,Clear,0,2012-11-18 23:35:00
6:55 PM,41.0,26.6,57,30.42,10.0,Calm,Calm,-,N/A,,Clear,0,2012-11-18 23:55:00
7:15 PM,37.4,26.6,65,30.43,10.0,Calm,Calm,-,N/A,,Clear,0,2012-11-19 00:15:00
7:35 PM,37.4,26.6,65,30.42,10.0,Calm,Calm,-,N/A,,Clear,0,2012-11-19 00:35:00
7:55 PM,37.4,26.6,65,30.42,10.0,Calm,Calm,-,N/A,,Clear,0,2012-11-19 00:55:00
8:15 PM,35.6,26.6,70,30.43,10.0,Calm,Calm,-,N/A,,Clear,0,2012-11-19 01:15:00
8:35 PM,35.6,26.6,70,30.43,10.0,Calm,Calm,-,N/A,,Clear,0,2012-11-19 01:35:00
8:55 PM,33.8,26.6,75,30.43,10.0,Calm,Calm,-,N/A,,Clear,0,2012-11-19 01:55:00
9:15 PM,33.8,26.6,75,30.42,10.0,Calm,Calm,-,N/A,,Clear,0,2012-11-19 02:15:00
9:35 PM,33.8,26.6,75,30.43,10.0,Calm,Calm,-,N/A,,Clear,0,2012-11-19 02:35:00
9:55 PM,32.0,26.6,80,30.42,10.0,Calm,Calm,-,N/A,,Clear,0,2012-11-19 02:55:00
10:15 PM,32.0,26.6,80,30.42,10.0,Calm,Calm,-,N/A,,Clear,0,2012-11-19 03:15:00
10:35 PM,32.0,26.6,80,30.42,10.0,Calm,Calm,-,N/A,,Clear,0,2012-11-19 03:35:00
10:55 PM,32.0,26.6,80,30.41,10.0,Calm,Calm,-,N/A,,Clear,0,2012-11-19 03:55:00
11:15 PM,30.2,26.6,86,30.41,10.0,Calm,Calm,-,N/A,,Clear,0,2012-11-19 04:15:00
11:35 PM,32.0,26.6,80,30.41,10.0,Calm,Calm,-,N/A,,Clear,0,2012-11-19 04:35:00
11:55 PM,32.0,26.6,80,30.42,10.0,Calm,Calm,-,N/A,,Clear,0,2012-11-19 04:55:00